Change the Weather History Date:

Wednesday, April 9, 2014

  Actual Average Record
Temperature  
Mean Temperature 50 °F -  
Max Temperature 71 °F 60 °F 83 °F (1977)
Min Temperature 28 °F 34 °F -99 °F (2001)
Degree Days  
Heating Degree Days 16    
Moisture  
Dew Point 27 °F    
Average Humidity 41    
Maximum Humidity 80    
Minimum Humidity 19    
Precipitation  
Precipitation 0.00 in - - ()
Sea Level Pressure  
Sea Level Pressure 29.92 in    
Wind  
Wind Speed 10 mph (SSW)    
Max Wind Speed 26 mph    
Max Gust Speed 34 mph    
Visibility 10 miles    
Events      
Averages and records for this station are not official NWS values.
T = Trace of Precipitation, MM = Missing Value Source: NWS Daily Summary

Daily Weather History Graph

Daily Weather History Graph

Search for Another Location

Airport or City:

Trip Planner

Search our weather history database for the weather conditions in past years. The results will help you decide how hot, cold, wet, or windy it might be!

Date:

Astronomy

Apr. 09, 2014 Rise Set
Actual Time 6:43 AM CDT 7:46 PM CDT
Civil Twilight 6:15 AM CDT 8:15 PM CDT
Nautical Twilight 5:42 AM CDT 8:48 PM CDT
Astronomical Twilight 5:07 AM CDT 9:23 PM CDT
Moon 2:33 PM CDT (4/9) 3:35 AM CDT (4/9)
Length of Visible Light 13h 59m
Length of Day
13h 03m
Waxing Gibbous, 72% of the Moon is Illuminated
Apr 9
Waxing Gibbous
Apr 15
Full
Apr 22
Last Quarter
Apr 29
New
May 6
First Quarter

Hourly Weather History & Observations

Time (CDT) Temp. Windchill Dew Point Humidity Pressure Visibility Wind Dir Wind Speed Gust Speed Precip Events Conditions
12:15 AM 41.0 °F - 24.8 °F 53% 30.05 in 10.0 mi Calm Calm - N/A   Clear
12:35 AM 41.0 °F 39.0 °F 24.8 °F 53% 30.05 in 10.0 mi West 3.5 mph - N/A   Clear
12:55 AM 39.2 °F 35.9 °F 24.8 °F 56% 30.05 in 10.0 mi WSW 4.6 mph - N/A   Clear
1:15 AM 39.2 °F 35.0 °F 23.0 °F 52% 30.05 in 10.0 mi West 5.8 mph - N/A   Clear
1:35 AM 37.4 °F 32.1 °F 23.0 °F 56% 30.05 in 10.0 mi West 6.9 mph - N/A   Clear
1:55 AM 35.6 °F 30.7 °F 23.0 °F 60% 30.05 in 10.0 mi West 5.8 mph - N/A   Clear
2:15 AM 35.6 °F 31.7 °F 23.0 °F 60% 30.05 in 10.0 mi West 4.6 mph - N/A   Clear
2:35 AM 35.6 °F 30.7 °F 23.0 °F 60% 30.05 in 10.0 mi WSW 5.8 mph - N/A   Clear
2:55 AM 35.6 °F 30.7 °F 23.0 °F 60% 30.04 in 10.0 mi WSW 5.8 mph - N/A   Clear
3:15 AM 35.6 °F 30.7 °F 23.0 °F 60% 30.04 in 10.0 mi WSW 5.8 mph - N/A   Clear
3:35 AM 33.8 °F 28.6 °F 23.0 °F 65% 30.04 in 10.0 mi SW 5.8 mph - N/A   Clear
3:55 AM 35.6 °F 30.7 °F 23.0 °F 60% 30.04 in 10.0 mi SW 5.8 mph - N/A   Clear
4:15 AM 35.6 °F 30.7 °F 23.0 °F 60% 30.04 in 10.0 mi SW 5.8 mph - N/A   Clear
4:35 AM 35.6 °F 30.7 °F 24.8 °F 65% 30.04 in 10.0 mi SW 5.8 mph - N/A   Clear
4:55 AM 35.6 °F 29.9 °F 24.8 °F 65% 30.04 in 10.0 mi SW 6.9 mph - N/A   Clear
5:15 AM 33.8 °F 27.7 °F 23.0 °F 65% 30.05 in 10.0 mi SW 6.9 mph - N/A   Clear
5:35 AM 32.0 °F 26.4 °F 23.0 °F 69% 30.05 in 10.0 mi SW 5.8 mph - N/A   Clear
5:55 AM 32.0 °F 27.5 °F 23.0 °F 69% 30.05 in 10.0 mi SSW 4.6 mph - N/A   Clear
6:15 AM 28.4 °F 22.2 °F 23.0 °F 80% 30.05 in - SSW 5.8 mph - N/A   Clear
6:35 AM 32.0 °F 26.4 °F 23.0 °F 69% 30.05 in 10.0 mi SW 5.8 mph - N/A   Clear
6:55 AM 30.2 °F 24.3 °F 23.0 °F 75% 30.05 in 10.0 mi South 5.8 mph - N/A   Clear
7:15 AM 30.2 °F 23.4 °F 23.0 °F 75% 30.06 in 10.0 mi SSW 6.9 mph - N/A   Clear
7:35 AM 33.8 °F 27.7 °F 24.8 °F 70% 30.06 in 10.0 mi SSW 6.9 mph - N/A   Clear
7:55 AM 35.6 °F 29.9 °F 26.6 °F 70% 30.06 in 10.0 mi South 6.9 mph - N/A   Clear
8:15 AM 39.2 °F 33.6 °F 28.4 °F 65% 30.06 in 10.0 mi South 8.1 mph - N/A   Clear
8:35 AM 42.8 °F 37.5 °F 28.4 °F 57% 30.06 in 10.0 mi SSW 9.2 mph - N/A   Clear
8:55 AM 46.4 °F 40.4 °F 28.4 °F 50% 30.05 in 10.0 mi SSW 13.8 mph - N/A   Clear
9:15 AM 50.0 °F - 26.6 °F 40% 30.04 in 10.0 mi SSW 13.8 mph - N/A   Clear
9:35 AM 51.8 °F - 26.6 °F 38% 30.04 in 10.0 mi SSW 13.8 mph - N/A   Clear
9:55 AM 53.6 °F - 24.8 °F 33% 30.03 in 10.0 mi SSW 15.0 mph 21.9 mph N/A   Clear
10:15 AM 57.2 °F - 24.8 °F 29% 30.02 in 10.0 mi SSW 15.0 mph - N/A   Clear
10:35 AM 57.2 °F - 23.0 °F 27% 30.02 in 10.0 mi SSW 11.5 mph 21.9 mph N/A   Clear
10:55 AM 59.0 °F - 23.0 °F 25% 30.01 in 10.0 mi SSW 16.1 mph - N/A   Clear
11:15 AM 59.0 °F - 23.0 °F 25% 29.99 in 10.0 mi SSW 20.7 mph - N/A   Clear
11:35 AM 60.8 °F - 23.0 °F 23% 29.98 in 10.0 mi South 19.6 mph - N/A   Clear
11:55 AM 62.6 °F - 23.0 °F 22% 29.97 in 10.0 mi SW 16.1 mph 24.2 mph N/A   Clear
12:15 PM 62.6 °F - 23.0 °F 22% 29.96 in 10.0 mi South 18.4 mph 27.6 mph N/A   Clear
12:35 PM 64.4 °F - 24.8 °F 22% 29.94 in 10.0 mi South 20.7 mph 26.5 mph N/A   Clear
12:55 PM 64.4 °F - 24.8 °F 22% 29.93 in 10.0 mi South 18.4 mph 25.3 mph N/A   Clear
1:15 PM 66.2 °F - 24.8 °F 21% 29.92 in 10.0 mi SSW 18.4 mph 26.5 mph N/A   Clear
1:35 PM 66.2 °F - 24.8 °F 21% 29.91 in 10.0 mi SSW 17.3 mph 28.8 mph N/A   Clear
1:55 PM 68.0 °F - 26.6 °F 21% 29.90 in 10.0 mi SSW 18.4 mph 26.5 mph N/A   Clear
2:15 PM 68.0 °F - 26.6 °F 21% 29.88 in 10.0 mi South 24.2 mph 33.4 mph N/A   Clear
2:35 PM 69.8 °F - 26.6 °F 20% 29.86 in 10.0 mi SSW 21.9 mph 33.4 mph N/A   Clear
2:55 PM 69.8 °F - 26.6 °F 20% 29.84 in 10.0 mi SSW 20.7 mph 32.2 mph N/A   Clear
3:15 PM 71.6 °F - 26.6 °F 19% 29.83 in 10.0 mi South 25.3 mph 31.1 mph N/A   Clear
3:35 PM 71.6 °F - 28.4 °F 20% 29.82 in 10.0 mi SSW 21.9 mph 34.5 mph N/A   Clear
3:55 PM 69.8 °F - 28.4 °F 21% 29.81 in 10.0 mi SSW 21.9 mph 34.5 mph N/A   Clear
4:15 PM 69.8 °F - 28.4 °F 21% 29.80 in 10.0 mi SSW 26.5 mph 33.4 mph N/A   Clear
4:35 PM 71.6 °F - 30.2 °F 22% 29.80 in 10.0 mi SSW 20.7 mph 33.4 mph N/A   Clear
4:55 PM 71.6 °F - 30.2 °F 22% 29.79 in 10.0 mi SSW 26.5 mph 34.5 mph N/A   Clear
5:15 PM 71.6 °F - 30.2 °F 22% 29.79 in 10.0 mi SSW 23.0 mph 33.4 mph N/A   Clear
5:35 PM 71.6 °F - 30.2 °F 22% 29.79 in 10.0 mi SSW 23.0 mph 32.2 mph N/A   Clear
5:55 PM 69.8 °F - 30.2 °F 23% 29.78 in 10.0 mi SSW 21.9 mph 34.5 mph N/A   Clear
6:15 PM 68.0 °F - 32.0 °F 26% 29.77 in 10.0 mi SSW 20.7 mph - N/A   Clear
6:35 PM 68.0 °F - 32.0 °F 26% 29.77 in 10.0 mi South 18.4 mph 24.2 mph N/A   Clear
6:55 PM 68.0 °F - 32.0 °F 26% 29.77 in 10.0 mi South 15.0 mph 21.9 mph N/A   Clear
7:15 PM 68.0 °F - 32.0 °F 26% 29.77 in 10.0 mi SSW 15.0 mph 24.2 mph N/A   Clear
7:35 PM 66.2 °F - 32.0 °F 28% 29.77 in 10.0 mi South 12.7 mph 18.4 mph N/A   Clear
7:55 PM 64.4 °F - 33.8 °F 32% 29.76 in 10.0 mi South 13.8 mph - N/A   Clear
8:15 PM 64.4 °F - 33.8 °F 32% 29.76 in 10.0 mi South 12.7 mph - N/A   Clear
8:35 PM 62.6 °F - 33.8 °F 34% 29.76 in 10.0 mi South 13.8 mph - N/A   Scattered Clouds
8:55 PM 62.6 °F - 33.8 °F 34% 29.76 in 10.0 mi South 15.0 mph - N/A   Mostly Cloudy
9:15 PM 60.8 °F - 33.8 °F 36% 29.76 in 10.0 mi South 16.1 mph - N/A   Mostly Cloudy
9:35 PM 62.6 °F - 33.8 °F 34% 29.76 in 10.0 mi South 17.3 mph 23.0 mph N/A   Overcast
9:55 PM 62.6 °F - 33.8 °F 34% 29.76 in 10.0 mi South 17.3 mph - N/A   Mostly Cloudy
10:15 PM 60.8 °F - 33.8 °F 36% 29.76 in 10.0 mi South 18.4 mph 25.3 mph N/A   Mostly Cloudy
10:35 PM 60.8 °F - 33.8 °F 36% 29.74 in 10.0 mi South 19.6 mph - N/A   Scattered Clouds
10:55 PM 60.8 °F - 33.8 °F 36% 29.74 in 10.0 mi South 18.4 mph 24.2 mph N/A   Partly Cloudy
11:15 PM 60.8 °F - 33.8 °F 36% 29.73 in 10.0 mi South 17.3 mph - N/A   Clear
11:35 PM 59.0 °F - 33.8 °F 39% 29.73 in 10.0 mi South 17.3 mph - N/A   Clear
11:55 PM 59.0 °F - 35.6 °F 42% 29.72 in 10.0 mi South 17.3 mph - N/A   Partly Cloudy